Simultaneous Nadir Overpasses (SNOs) Predictions

Prediction of SNOs between LANDSAT-8 and TERRA Satellite Orbit:

Table of predicted SNOs for the next 14.0 days since TLE Epoch: 2/24/2024
Index Date (LANDSAT-8) Time (LANDSAT-8) Lat,Lon (LANDSAT-8) SZA (LANDSAT-8 ) Date (TERRA) Time (TERRA) Lat,Lon (TERRA) SZA (TERRA ) Distance(km) Time Diff (sec)
1 02/25/2024 10:23:11 -81.76, -84.16 83.94 02/25/2024 10:24:22 -81.75, -84.13 83.90 0.61 71
2 02/25/2024 11:12:38 81.76, 83.35 96.04 02/25/2024 11:13:43 81.75, 83.51 96.09 2.69 65
3 02/25/2024 12:02:04 -81.76,-108.87 83.96 02/25/2024 12:03:05 -81.75,-108.77 83.92 1.61 61
4 02/25/2024 12:51:30 81.75, 59.06 96.07 02/25/2024 12:52:26 81.75, 58.87 96.07 3.06 56
5 02/25/2024 13:40:57 -81.76,-133.57 83.98 02/25/2024 13:41:48 -81.75,-133.41 83.94 2.66 51
6 02/25/2024 14:30:23 81.75, 34.36 96.04 02/25/2024 14:31:09 81.75, 34.23 96.05 2.00 46
7 02/25/2024 15:19:49 -81.75,-157.86 83.96 02/25/2024 15:20:31 -81.75,-158.05 83.96 3.06 42
8 02/25/2024 16:09:16 81.75, 9.65 96.02 02/25/2024 16:09:52 81.75, 9.59 96.03 0.95 36
9 02/25/2024 16:58:42 -81.75, 177.44 83.98 02/25/2024 16:59:14 -81.75, 177.31 83.98 2.00 32
10 02/25/2024 17:48:09 81.75, -15.05 96.00 02/25/2024 17:48:35 81.75, -15.04 96.01 0.11 26
11 02/25/2024 18:37:35 -81.75, 152.73 84.00 02/25/2024 18:37:57 -81.75, 152.68 84.00 0.94 22
12 02/25/2024 19:27:02 81.75, -39.76 95.98 02/25/2024 19:27:18 81.75, -39.68 95.99 1.16 16
13 02/25/2024 20:16:28 -81.74, 128.03 84.02 02/25/2024 20:16:40 -81.74, 128.04 84.02 0.12 12
14 02/25/2024 21:05:55 81.75, -64.46 95.95 02/25/2024 21:06:01 81.75, -64.32 95.97 2.22 6
15 02/25/2024 21:55:21 -81.74, 103.33 84.05 02/25/2024 21:55:23 -81.74, 103.40 84.04 1.17 2
16 02/25/2024 22:44:48 81.75, -89.17 95.93 02/25/2024 22:44:44 81.74, -88.96 95.95 3.27 4
17 02/25/2024 23:34:14 -81.74, 78.62 84.07 02/25/2024 23:34:06 -81.74, 78.76 84.06 2.22 8
18 02/26/2024 00:23:40 81.74,-113.45 95.96 02/26/2024 00:23:27 81.74,-113.60 95.93 2.47 13
19 02/26/2024 01:13:07 -81.74, 53.92 84.09 02/26/2024 01:12:49 -81.74, 54.12 84.08 3.28 18
20 02/26/2024 02:02:33 81.74,-138.16 95.94 02/26/2024 02:02:10 81.74,-138.24 95.91 1.43 23
21 02/26/2024 02:51:59 -81.73, 29.63 84.06 02/26/2024 02:51:32 -81.74, 29.48 84.10 2.44 27
22 02/26/2024 03:41:26 81.74,-162.86 95.91 02/26/2024 03:40:53 81.74,-162.88 95.89 0.44 33
23 02/26/2024 04:30:52 -81.73, 4.92 84.09 02/26/2024 04:30:15 -81.74, 4.84 84.12 1.39 37
24 02/26/2024 05:20:18 81.73, 172.85 95.94 02/26/2024 05:19:35 81.72, 172.89 95.92 0.72 43
25 02/26/2024 06:09:44 -81.72, -19.37 84.06 02/26/2024 06:08:57 -81.72, -19.39 84.09 0.42 47
26 02/26/2024 06:59:11 81.73, 148.15 95.92 02/26/2024 06:58:18 81.72, 148.25 95.90 1.74 53
27 02/26/2024 07:48:37 -81.72, -44.07 84.08 02/26/2024 07:47:40 -81.72, -44.03 84.11 0.74 57
28 02/26/2024 08:38:04 81.73, 123.44 95.90 02/26/2024 08:37:01 81.72, 123.61 95.88 2.79 63
29 02/26/2024 09:27:30 -81.72, -68.78 84.10 02/26/2024 09:26:23 -81.72, -68.67 84.13 1.77 67



Historial Predications of SNOs between LANDSAT-8 and TERRA
